User: anonymous   Login
Location: Shenandoah County Park
(38.9356°N, 78.4524°W)
Time: 17:21:43
(UTC-04:00)
Language:

NOAA 19 - Orbit

View from above orbital plane
View from above orbital plane
View from above satellite
View from above satellite

Ground track
Ground track

The orbit data is extracted from the following two-line orbital elements,

1 33591U 09005A   23090.55934873  .00000393  00000-0  23671-3 0  9990
2 33591  99.1100 135.2128 0014904 101.3731 258.9115 14.12722467728980
Epoch (UTC): 31 March 2023 13:25:27
Eccentricity: 0.0014904
inclination: 99.1100°
perigee height: 839 km
apogee height: 861 km
right ascension of ascending node: 135.2128°
argument of perigee: 101.3731°
revolutions per day: 14.12722467
mean anomaly at epoch: 258.9115°
orbit number at epoch: 72898

The dashed part of the orbit path shows where the satellite is in the earth's shadow,  

DLR